GW4332 Weather Reports


time (UTC)temp
C
wind
direction
speed
KPH
gust
KPH
rain 1hr
cm
rain 24hr
cm
rain mn
cm
humidity
%
barometer
mb
20260504215030 11 40 11.3 17.7 0.00 0.00 0.05 86 1013.9
20260504214030 11 46 12.9 20.9 0.00 0.00 0.05 86 1013.9
20260504213030 11 42 12.9 19.3 0.00 0.00 0.05 86 1014.0
20260504212030 12 40 9.7 17.7 0.00 0.00 0.05 86 1014.0
20260504211030 12 32 14.5 24.1 0.00 0.00 0.05 86 1013.9
20260504210030 12 40 14.5 24.1 0.00 0.00 0.05 86 1014.1
20260504205030 12 47 11.3 19.3 0.00 0.00 0.05 86 1014.0
20260504204030 12 42 12.9 19.3 0.00 0.00 0.05 86 1013.9
20260504203030 12 30 11.3 20.9 0.00 0.00 0.05 86 1013.8
20260504202030 12 32 14.5 22.5 0.00 0.00 0.05 86 1013.8
20260504201030 12 39 14.5 22.5 0.00 0.00 0.05 86 1013.8
20260504200030 12 34 9.7 16.1 0.00 0.00 0.05 86 1013.7
20260504195030 12 43 14.5 24.1 0.00 0.00 0.05 86 1013.6
20260504194030 13 31 14.5 24.1 0.00 0.00 0.05 86 1013.5
20260504193030 13 14 11.3 20.9 0.00 0.00 0.05 86 1013.4
20260504192030 13 25 14.5 29.0 0.00 0.00 0.05 86 1013.4
20260504191030 13 18 14.5 29.0 0.00 0.00 0.05 85 1013.3
20260504190030 13 12 14.5 22.5 0.00 0.00 0.05 85 1013.3
20260504185029 13 12 16.1 27.4 0.00 0.00 0.05 85 1013.2
20260504184029 13 15 14.5 24.1 0.00 0.00 0.05 85 1013.4
20260504183030 14 3 17.7 27.4 0.00 0.00 0.05 85 1013.2
20260504182030 14 1 17.7 27.4 0.00 0.00 0.05 84 1013.1
20260504181030 14 7 17.7 25.7 0.00 0.00 0.05 83 1013.1
20260504180030 15 3 17.7 27.4 0.00 0.00 0.05 83 1013.1
20260504175030 15 359 16.1 27.4 0.00 0.00 0.05 83 1013.1
20260504174030 15 349 16.1 24.1 0.00 0.00 0.05 83 1013.1
20260504173030 15 5 14.5 22.5 0.00 0.00 0.05 83 1013.2
20260504172030 15 339 16.1 24.1 0.00 0.00 0.05 83 1013.0
20260504171029 15 4 14.5 25.7 0.00 0.00 0.05 83 1013.1
20260504151030 16 347 16.1 20.9 0.00 0.00 0.05 83 1013.0
20260504141030 16 355 12.9 20.9 0.00 0.00 0.05 83 1013.3
20260504081030 14 179 1.6 4.8 0.00 0.00 0.05 95 1013.0
20260504045030 12 262 0.0 1.6 0.00 0.00 0.05 94 1011.8
20260504044030 12 262 3.2 6.4 0.00 0.00 0.05 94 1011.8
20260504043029 12 275 6.4 11.3 0.00 0.00 0.05 94 1011.8
20260504042030 12 255 6.4 11.3 0.00 0.00 0.05 94 1011.8
20260504041030 12 252 8.0 11.3 0.00 0.00 0.05 94 1011.8
20260504040029 12 257 9.7 14.5 0.00 0.00 0.05 94 1011.7
20260504035029 13 250 9.7 14.5 0.00 0.00 0.05 94 1011.6
20260504034030 13 256 6.4 11.3 0.00 0.00 0.05 95 1011.7
20260504033030 13 236 4.8 11.3 0.00 0.00 0.05 94 1011.6
20260504032029 13 185 1.6 4.8 0.00 0.00 0.05 94 1011.7
20260504031030 13 162 0.0 4.8 0.00 0.00 0.05 94 1011.7
20260504030030 13 214 3.2 8.0 0.00 0.00 0.05 94 1011.6
20260504025029 13 217 6.4 12.9 0.00 0.00 0.05 94 1011.6
20260504024030 13 222 6.4 14.5 0.00 0.00 0.05 94 1011.6
20260504023030 13 242 6.4 14.5 0.00 0.00 0.05 94 1011.5
20260504022029 13 222 6.4 9.7 0.00 0.00 0.05 94 1011.5
20260504021030 13 209 4.8 8.0 0.00 0.00 0.05 94 1011.5
20260504020030 13 216 4.8 8.0 0.00 0.00 0.05 94 1011.6
20260504015029 13 235 6.4 12.9 0.00 0.00 0.05 94 1011.6
20260504014030 13 240 9.7 16.1 0.00 0.00 0.05 94 1011.6
20260504013029 13 239 9.7 14.5 0.00 0.00 0.05 94 1011.4
20260504012030 13 232 8.0 14.5 0.00 0.00 0.05 94 1011.6
20260504011029 13 222 6.4 11.3 0.00 0.00 0.05 94 1011.5
20260504010030 13 207 6.4 11.3 0.00 0.00 0.05 94 1011.5
20260504005030 13 229 8.0 12.9 0.00 0.00 0.05 94 1011.4
20260504004029 13 240 9.7 16.1 0.00 0.00 0.05 94 1011.4
20260504003029 13 237 11.3 17.7 0.00 0.00 0.05 94 1011.5
20260504002030 13 227 6.4 9.7 0.00 0.00 0.05 94 1011.5
20260504001030 13 229 6.4 12.9 0.00 0.00 0.05 94 1011.5
20260504000029 13 237 11.3 16.1 0.00 0.00 0.05 94 1011.5
20260503235030 13 238 14.5 19.3 0.00 0.00 0.05 94 1011.6
20260503234030 13 245 14.5 19.3 0.00 0.00 0.05 94 1011.4
20260503233029 14 239 9.7 16.1 0.00 0.00 0.05 93 1011.4
20260503232030 14 206 4.8 8.0 0.00 0.00 0.05 93 1011.4
20260503231030 13 227 6.4 12.9 0.00 0.00 0.05 93 1011.4
20260503230030 14 247 9.7 12.9 0.00 0.00 0.05 93 1011.3
20260503225029 14 254 11.3 12.9 0.00 0.00 0.05 93 1011.3
20260503224029 14 271 11.3 16.1 0.00 0.00 0.05 94 1011.3
20260503223030 14 288 8.0 11.3 0.00 0.00 0.03 93 1011.2
20260503222029 14 292 6.4 11.3 0.00 0.00 0.03 93 1011.2
20260503221029 14 274 11.3 14.5 0.00 0.00 0.03 93 1011.1
20260503220029 14 257 14.5 17.7 0.00 0.00 0.81 93 1011.1